Weather History for Spirit of St Louis, MO

Change the Weather History Date:

Monday, January 7, 2013

  Actual Average Record
Temperature  
Mean Temperature 32 °F -  
Max Temperature 48 °F 38 °F - (-1)
Min Temperature 17 °F 21 °F - (-1)
Degree Days  
Heating Degree Days 32    
Moisture  
Dew Point 20 °F    
Average Humidity 62    
Maximum Humidity 85    
Minimum Humidity 37    
Precipitation  
Precipitation 0.00 in - - ()
Sea Level Pressure  
Sea Level Pressure 30.31 in    
Wind  
Wind Speed 2 mph (South)    
Max Wind Speed 10 mph    
Max Gust Speed -    
Visibility 10 miles    
Events      
Averages and records for this station are not official NWS values.
T = Trace of Precipitation, MM = Missing Value Source: NWS Daily Summary

Daily Weather History Graph

Daily Weather History Graph

Search for Another Location

Airport:

Trip Planner

Search our weather history database for the weather conditions in past years. The results will help you decide how hot, cold, wet, or windy it might be!

Date:

Astronomy

Jan. 07, 2013 Rise Set
Actual Time 7:20 AM CST 4:57 PM CST
Civil Twilight 6:51 AM CST 5:27 PM CST
Nautical Twilight 6:18 AM CST 6:00 PM CST
Astronomical Twilight 5:46 AM CST 6:32 PM CST
Moon 2:45 AM CST (1/7) 1:08 PM CST (1/7)
Length of Visible Light 10h 35m
Length of Day
9h 36m
Waning Crescent, 22% of the Moon is Illuminated
Jan 7
Waning Crescent
Jan 11
New
Jan 18
First Quarter
Jan 26
Full
Feb 3
Last Quarter

Hourly Weather History & Observations

Time (CST) Temp. Windchill Dew Point Humidity Pressure Visibility Wind Dir Wind Speed Gust Speed Precip Events Conditions
12:54 AM 19.9 °F - 16.0 °F 85% 30.41 in 10.0 mi Calm Calm - N/A   Clear
1:54 AM 19.0 °F - 15.1 °F 85% 30.41 in 10.0 mi Calm Calm - N/A   Clear
2:54 AM 19.0 °F - 15.1 °F 85% 30.43 in 10.0 mi Calm Calm - N/A   Clear
3:54 AM 17.1 °F - 12.9 °F 84% 30.42 in 9.0 mi Calm Calm - N/A   Clear
4:54 AM 18.0 °F - 14.0 °F 84% 30.41 in 9.0 mi Calm Calm - N/A   Clear
5:54 AM 18.0 °F - 14.0 °F 84% 30.40 in 10.0 mi Calm Calm - N/A   Clear
6:54 AM 17.1 °F 11.7 °F 12.9 °F 84% 30.41 in 9.0 mi SW 3.5 mph - N/A   Clear
7:54 AM 18.0 °F - 14.0 °F 84% 30.42 in 10.0 mi Calm Calm - N/A   Clear
8:54 AM 28.0 °F - 21.0 °F 75% 30.41 in 10.0 mi Calm Calm - N/A   Clear
9:54 AM 34.0 °F 26.0 °F 23.0 °F 64% 30.40 in 10.0 mi South 10.4 mph - N/A   Clear
10:54 AM 37.9 °F 34.4 °F 23.0 °F 55% 30.39 in 10.0 mi South 4.6 mph - N/A   Partly Cloudy
11:54 AM 41.0 °F 35.2 °F 23.0 °F 49% 30.33 in 10.0 mi South 9.2 mph - N/A   Partly Cloudy
12:54 PM 44.6 °F 39.7 °F 24.8 °F 46% 30.25 in 10.0 mi SSE 9.2 mph - N/A   Partly Cloudy
1:54 PM 46.9 °F - 24.1 °F 41% 30.25 in 10.0 mi SSE 8.1 mph - N/A   Clear
2:54 PM 48.0 °F - 23.0 °F 37% 30.24 in 10.0 mi SE 6.9 mph - N/A   Scattered Clouds
3:54 PM 46.0 °F 43.9 °F 21.9 °F 39% 30.23 in 10.0 mi SSE 4.6 mph - N/A   Scattered Clouds
4:54 PM 44.6 °F 42.2 °F 21.2 °F 39% 30.18 in 10.0 mi SE 4.6 mph - N/A   Scattered Clouds
5:54 PM 42.1 °F 40.2 °F 21.0 °F 43% 30.22 in 10.0 mi SE 3.5 mph - N/A   Scattered Clouds
6:54 PM 41.0 °F 36.4 °F 21.0 °F 45% 30.21 in 10.0 mi South 6.9 mph - N/A   Clear
7:54 PM 39.0 °F 34.0 °F 21.0 °F 49% 30.19 in 10.0 mi South 6.9 mph - N/A   Mostly Cloudy
8:54 PM 37.0 °F 33.3 °F 21.9 °F 54% 30.19 in 10.0 mi South 4.6 mph - N/A   Partly Cloudy
9:54 PM 35.1 °F - 21.9 °F 59% 30.19 in 10.0 mi Calm Calm - N/A   Partly Cloudy
10:54 PM 34.0 °F - 21.9 °F 61% 30.18 in 10.0 mi Calm Calm - N/A   Clear
11:54 PM 33.1 °F - 21.9 °F 64% 30.17 in 10.0 mi Calm Calm - N/A   Clear